Location: Newark
(51.7244°N, 11.1392°E)
Time: 14:55:44
(UTC+00:00)

ISS - Visible Passes

Search period start: 11 December 2019 00:00
Search period end: 21 December 2019 00:00
Orbit: 411 x 421 km, 51.6° (Epoch: 12 December)

Date Brightness Start Highest point End Pass type
(mag) Time Alt. Az. Time Alt. Az. Time Alt. Az.
11 Dec -0.7 16:38:20 10° WSW 16:40:21 15° SW 16:42:23 10° S visible
12 Dec -0.9 15:49:23 10° W 15:52:02 22° SW 15:54:40 10° SSE visible
14 Dec 0.0 15:50:26 10° WSW 15:51:17 11° SW 15:52:08 10° SSW visible
